Location: Maccacari
(45.1333°N, 11.1333°E)
Time: 08:13:30
(UTC+00:00)

YAOGAN 1 - Pass Details

Date: 18 September 2020
Orbit: 618 x 620 km, 97.9° (Epoch: 29 October)

Event Time Altitude Azimuth Distance (km) Brightness Sun altitude
Rises 18:20:59 0° 182° (S) 2,883 5.9 -11.5°
Reaches altitude 10° 18:23:15 10° 189° (S) 1,983 5.1 -11.8°
Maximum altitude 18:27:21 43° 261° (W) 882 3.9 -12.5°
Drops below altitude 10° 18:31:30 10° 334° (NNW) 1,998 5.8 -13.3°
Sets 18:33:48 0° 341° (NNW) 2,909 6.5 -13.6°
